Regional Weather Roundup
Issued by NWS

Home | Current Version | Previous Version | Graphics & Text | Print | Product List | Glossary Off
Versions: 1 2 3 4 5 6 7 8 9 10 11 12 13 14 15 16 17 18 19 20 21 22 23 24 25 26 27 28 29 30 31 32 33 34 35 36 37 38 39 40 41 42 43 44 45 46 47 48 49 50

000
ASUS43 KTOP 201459
RWRKS

WEATHER ROUNDUP FOR KANSAS
NATIONAL WEATHER SERVICE GOODLAND KS
1000 AM CDT SUN AUG 20 2017

NOTE:  "FAIR" INDICATES FEW OR NO CLOUDS BELOW 12,000 FEET WITH NO
SIGNIFICANT WEATHER AND/OR OBSTRUCTIONS TO VISIBILITY.

KSZ001>006-013>018-027>032-041>047-201600-
NORTHWEST KANSAS

CITY           SKY/WX    TMP DP  RH WIND       PRES   REMARKS
GOODLAND       SUNNY     78  59  51 CALM      29.98R
HAYS           SUNNY     83  67  58 S12       29.93S
HILL CITY      SUNNY     82  66  58 SW9       29.91S
RUSSELL        SUNNY     82  67  60 S12       29.92S
$$

KSZ061>065-074>080-084>089-201600-
SOUTHWEST KANSAS

CITY           SKY/WX    TMP DP  RH WIND       PRES   REMARKS
DODGE CITY     SUNNY     82  64  54 SW13G21   29.98S
ELKHART          N/A     74  63  69 SW13        N/A
GARDEN CITY    SUNNY     78  66  66 S13       29.97R
GREAT BEND     MOSUNNY   81  69  67 S15       29.95S
LIBERAL        SUNNY     78  66  66 SW16      30.00S
$$

KSZ066>073-081>083-090>101-201600-
SOUTHEAST KANSAS

CITY           SKY/WX    TMP DP  RH WIND       PRES   REMARKS
CHANUTE        SUNNY     84  72  67 E8        30.03R
COFFEYVILLE    SUNNY     86  76  71 S8        30.00R HX  96
HUTCHINSON     MOSUNNY   81  69  67 S12       29.95F
MEDICINE LODGE   N/A     79  68  69 S7        29.96S
NEWTON         CLOUDY    82  70  66 S12       29.99R
PARSONS        MOSUNNY   85  75  72 SE3       30.03R
WICHITA INTL   PTSUNNY   84  70  62 S13       29.97S
WICHITA JABRA  SUNNY     82  70  66 S9        29.98S
WINFIELD       SUNNY     83  72  69 S7        30.00R
$$

KSZ007>012-019>026-033>040-048>060-102>105-201600-
NORTHEAST KANSAS

CITY           SKY/WX    TMP DP  RH WIND       PRES   REMARKS
CONCORDIA      SUNNY     78  71  79 SE13      29.93S
EMPORIA        SUNNY     80  68  66 SE14      29.99F
LAWRENCE       MOSUNNY   76  69  79 E9        30.01F
MANHATTAN      SUNNY     80  70  71 SE9       29.96R
OLATHE IND     MOSUNNY   76  66  71 E14G20    30.04S
OLATHE EXE     PTSUNNY   74  67  78 SE14      30.03F
SALINA         SUNNY     86  69  56 S10       29.94F
TOPEKA BILLARD SUNNY     78  71  79 E12       29.99F
TOPEKA FORBES  SUNNY     79  69  71 SE12      29.99F
$$




USA.gov is the U.S. government's official web portal to all federal, state and local government web resources and services.